FW6154 Weather Reports


time (UTC)temp
C
wind
direction
speed
KPH
gust
KPH
rain 1hr
cm
rain 24hr
cm
rain mn
cm
humidity
%
barometer
mb
20260508020448 6 225 0.0 0.0 0.03 0.30 0.30 89 1004.8
20260508015932 6 248 0.0 0.0 0.03 0.30 0.30 89 1004.9
20260508014930 6 248 0.0 0.0 0.03 0.30 0.30 90 1004.8
20260508013902 6 315 0.0 0.0 0.03 0.28 0.28 90 1005.0
20260508013335 6 225 0.0 0.0 0.03 0.28 0.28 89 1005.0
20260508012827 6 270 0.0 0.0 0.03 0.28 0.28 88 1005.3
20260508012327 6 248 0.0 3.2 0.03 0.28 0.28 89 1005.4
20260508011843 6 293 0.0 3.2 0.03 0.28 0.28 90 1005.3
20260508011255 6 270 0.0 0.0 0.03 0.28 0.28 90 1005.2
20260508010745 6 293 0.0 0.0 0.03 0.28 0.28 90 1005.5
20260508010239 6 248 0.0 0.0 0.03 0.28 0.28 90 1005.4
20260508005729 6 0 0.0 3.2 0.03 0.28 0.28 89 1005.6
20260508005217 6 180 0.0 3.2 0.05 0.28 0.28 89 1005.6
20260508004704 6 225 0.0 3.2 0.03 0.23 0.23 89 1005.5
20260508003645 5 270 0.0 0.0 0.03 0.23 0.23 90 1005.8
20260508003146 6 293 0.0 0.0 0.03 0.23 0.23 90 1005.8
20260508002626 5 225 0.0 0.0 0.03 0.23 0.23 90 1005.7
20260508002118 5 225 0.0 0.0 0.03 0.23 0.23 90 1005.8
20260508001604 5 248 0.0 0.0 0.05 0.23 0.23 90 1005.8
20260508000544 5 293 0.0 3.2 0.05 0.23 0.23 89 1006.0
20260508000038 5 248 0.0 3.2 0.05 0.23 0.23 89 1005.7
20260507235025 5 158 0.0 3.2 0.03 0.20 0.20 89 1005.6
20260507233445 5 248 0.0 3.2 0.03 0.23 0.20 89 1005.6
20260507232953 5 270 0.0 3.2 0.03 0.23 0.20 89 1005.8
20260507231944 5 270 0.0 3.2 0.03 0.30 0.20 90 1005.6
20260507231408 5 225 0.0 3.2 0.00 0.30 0.18 90 1005.7
20260507230856 5 158 0.0 0.0 0.00 0.30 0.18 90 1005.7
20260507230345 5 203 0.0 3.2 0.03 0.33 0.18 90 1005.7
20260507225832 5 248 0.0 3.2 0.03 0.33 0.18 90 1005.7
20260507225322 6 293 0.0 0.0 0.03 0.33 0.18 91 1005.9
20260507224814 6 248 0.0 3.2 0.03 0.36 0.18 91 1005.8
20260507224305 6 0 0.0 3.2 0.05 0.38 0.18 91 1005.9
20260507223752 6 270 0.0 0.0 0.05 0.46 0.18 91 1005.8
20260507223245 6 270 0.0 9.7 0.05 0.48 0.18 91 1005.8
20260507222736 6 90 1.6 9.7 0.05 0.51 0.18 91 1005.7
20260507222223 6 270 0.0 6.4 0.05 0.53 0.18 92 1006.0
20260507221713 6 203 0.0 0.0 0.05 0.61 0.18 92 1006.0
20260507221205 6 270 0.0 0.0 0.05 0.64 0.18 92 1005.7
20260507220659 6 225 0.0 3.2 0.03 0.64 0.15 91 1005.8
20260507220141 7 270 0.0 3.2 0.03 0.64 0.15 91 1005.5
20260507215630 7 270 0.0 0.0 0.03 0.64 0.15 91 1005.4
20260507215122 7 203 0.0 3.2 0.03 0.64 0.15 91 1005.2
20260507214627 7 248 0.0 3.2 0.00 0.61 0.13 91 1005.2
20260507214109 7 180 0.0 0.0 0.00 0.61 0.13 91 1005.0
20260507213645 7 248 0.0 0.0 0.00 0.61 0.13 91 1004.9
20260507213041 7 158 0.0 0.0 0.00 0.61 0.13 91 1004.6
20260507212531 7 203 0.0 0.0 0.00 0.61 0.13 91 1004.3
20260507212021 7 270 0.0 6.4 0.00 0.64 0.13 91 1004.6
20260507211514 7 203 0.0 6.4 0.00 0.64 0.13 91 1004.3
20260507210959 8 338 0.0 0.0 0.00 0.64 0.13 91 1004.0
20260507210450 8 203 0.0 0.0 0.00 0.66 0.13 91 1004.0
20260507205942 8 293 0.0 3.2 0.00 0.66 0.13 91 1004.0
20260507205438 8 203 0.0 3.2 0.00 0.69 0.13 91 1004.1
20260507204919 8 248 0.0 0.0 0.00 0.69 0.13 91 1004.1
20260507203900 8 270 0.0 0.0 0.00 0.69 0.13 91 1004.0
20260507203349 8 293 0.0 0.0 0.00 0.71 0.13 91 1004.3
20260507202838 8 225 0.0 0.0 0.00 0.71 0.13 91 1004.4
20260507202328 8 248 0.0 0.0 0.00 0.71 0.13 91 1004.3
20260507201820 8 270 0.0 0.0 0.00 0.71 0.13 91 1004.3
20260507201309 8 248 0.0 0.0 0.00 0.71 0.13 91 1004.4
20260507200758 8 180 0.0 0.0 0.00 0.71 0.13 91 1004.4
20260507200249 8 248 0.0 0.0 0.00 0.71 0.13 91 1004.4
20260507195738 8 90 0.0 0.0 0.00 0.76 0.13 91 1004.4
20260507195228 8 270 0.0 0.0 0.00 0.76 0.13 91 1004.3
20260507194716 8 248 0.0 0.0 0.00 0.76 0.13 91 1004.3
20260507194208 8 203 0.0 0.0 0.00 0.76 0.13 91 1004.4
20260507193701 8 315 0.0 0.0 0.00 0.76 0.13 91 1004.4
20260507193149 8 293 0.0 0.0 0.00 0.76 0.13 91 1004.5
20260507192127 9 270 0.0 0.0 0.00 0.76 0.13 91 1004.5
20260507191617 8 180 0.0 0.0 0.00 0.76 0.13 91 1004.6
20260507190601 8 180 0.0 0.0 0.00 0.76 0.13 91 1004.2
20260507190050 8 135 0.0 0.0 0.00 0.76 0.13 91 1004.3
20260507185542 8 248 0.0 0.0 0.00 0.76 0.13 91 1004.5
20260507185027 9 270 0.0 0.0 0.00 0.76 0.13 91 1004.5
20260507184526 9 248 0.0 0.0 0.00 0.76 0.13 91 1004.3
20260507184007 9 248 0.0 0.0 0.00 0.76 0.13 91 1004.3
20260507183457 9 270 0.0 0.0 0.00 0.76 0.13 91 1004.2
20260507182946 9 248 0.0 0.0 0.00 0.76 0.13 91 1004.3
20260507182449 10 158 0.0 0.0 0.00 0.76 0.13 91 1004.0
20260507181930 9 203 0.0 0.0 0.00 0.76 0.13 91 1003.9
20260507180905 10 225 0.0 0.0 0.00 0.76 0.13 91 1004.0
20260507180355 10 203 0.0 0.0 0.00 0.76 0.13 91 1003.9
20260507175845 10 225 0.0 0.0 0.00 0.76 0.13 91 1003.8
20260507175337 10 203 0.0 0.0 0.00 0.76 0.13 90 1003.5
20260507174825 10 293 0.0 0.0 0.00 0.76 0.13 90 1003.4
20260507174315 10 158 0.0 0.0 0.00 0.76 0.13 90 1003.5
20260507173804 10 248 0.0 0.0 0.00 0.76 0.13 90 1003.3
20260507173257 10 270 0.0 0.0 0.00 0.76 0.13 90 1003.5
20260507172746 10 270 0.0 0.0 0.00 0.76 0.13 90 1003.1
20260507172235 10 293 0.0 0.0 0.00 0.76 0.13 89 1003.3
20260507171724 10 270 0.0 0.0 0.00 0.76 0.13 88 1003.3
20260507171217 11 270 0.0 0.0 0.00 0.76 0.13 88 1003.3
20260507170705 11 203 0.0 0.0 0.00 0.76 0.13 89 1003.5
20260507170154 10 248 0.0 0.0 0.00 0.76 0.13 89 1003.0
20260507165643 10 135 0.0 0.0 0.00 0.76 0.13 90 1003.2
20260507165133 11 180 0.0 0.0 0.00 0.76 0.13 90 1003.1
20260507164624 11 293 0.0 0.0 0.00 0.76 0.13 90 1003.2
20260507164114 10 225 0.0 0.0 0.00 0.76 0.13 90 1003.1
20260507163058 11 270 0.0 0.0 0.00 0.76 0.13 90 1003.5
20260507162544 11 270 0.0 0.0 0.00 0.76 0.13 90 1003.4
20260507162034 11 270 0.0 0.0 0.00 0.79 0.13 90 1003.3
20260507161013 11 248 0.0 0.0 0.00 0.97 0.13 90 1003.1
20260507160503 11 270 0.0 0.0 0.00 1.09 0.13 90 1003.3
20260507155953 11 248 0.0 0.0 0.00 1.12 0.13 90 1003.5
20260507154934 11 338 0.0 0.0 0.00 1.17 0.13 90 1003.3
20260507154423 11 248 0.0 0.0 0.00 1.17 0.13 88 1002.9
20260507153403 11 225 0.0 0.0 0.00 1.19 0.13 89 1002.9
20260507152858 11 270 0.0 0.0 0.00 1.19 0.13 89 1002.7
20260507150811 12 270 0.0 0.0 0.00 1.22 0.13 85 1002.6
20260507150303 12 270 0.0 0.0 0.00 1.22 0.13 84 1002.5
20260507145751 13 113 0.0 0.0 0.00 1.22 0.13 83 1002.5
20260507145243 13 293 0.0 0.0 0.00 1.22 0.13 82 1002.1
20260507144732 13 203 0.0 0.0 0.00 1.22 0.13 83 1002.3
20260507144222 13 270 0.0 0.0 0.00 1.27 0.13 82 1002.4
20260507143711 13 315 0.0 0.0 0.00 1.27 0.13 81 1001.7
20260507143200 13 158 0.0 0.0 0.00 1.27 0.13 80 1001.8
20260507142650 13 293 0.0 0.0 0.00 1.30 0.13 79 1001.7
20260507142142 14 270 0.0 0.0 0.00 1.37 0.13 78 1001.7
20260507141631 16 158 0.0 0.0 0.00 1.42 0.13 76 1001.8
20260507141120 15 270 0.0 0.0 0.00 1.42 0.13 78 1002.0
20260507140612 15 270 0.0 0.0 0.00 1.42 0.13 82 1001.9
20260507140110 13 248 0.0 0.0 0.00 1.45 0.13 85 1002.2
20260507135549 12 270 0.0 0.0 0.00 1.47 0.13 89 1002.3
20260507135040 12 248 0.0 0.0 0.00 1.50 0.13 92 1002.4
20260507134532 12 270 0.0 0.0 0.00 1.55 0.13 93 1002.1
20260507134019 12 270 0.0 0.0 0.00 1.65 0.13 94 1002.0
20260507133509 12 293 0.0 0.0 0.00 1.75 0.13 94 1001.9
20260507133000 12 293 0.0 0.0 0.00 1.78 0.13 94 1002.1
20260507132448 12 293 0.0 0.0 0.00 1.78 0.13 94 1001.9
20260507131939 12 293 0.0 0.0 0.00 1.83 0.13 95 1002.1
20260507131428 11 225 0.0 0.0 0.00 1.85 0.13 95 1002.1
20260507130919 12 248 0.0 0.0 0.00 1.85 0.13 95 1002.1
20260507130409 12 203 0.0 0.0 0.00 1.85 0.13 95 1002.1
20260507125858 12 270 0.0 0.0 0.00 1.85 0.13 95 1002.3
20260507124842 11 270 0.0 0.0 0.00 1.85 0.13 95 1002.5
20260507124329 11 293 0.0 0.0 0.00 1.85 0.13 95 1002.6
20260507123308 11 315 0.0 0.0 0.00 1.85 0.13 95 1002.5
20260507122757 11 293 0.0 0.0 0.00 1.85 0.13 95 1002.4
20260507122253 11 315 0.0 0.0 0.00 1.85 0.13 95 1002.6
20260507121738 10 293 0.0 0.0 0.00 1.85 0.13 95 1002.5
20260507121227 10 225 0.0 0.0 0.00 1.85 0.13 95 1002.4
20260507120207 10 293 0.0 0.0 0.00 1.85 0.13 95 1002.7
20260507115657 10 315 0.0 0.0 0.00 1.85 0.13 95 1002.9
20260507115147 10 270 0.0 0.0 0.00 1.85 0.13 95 1002.8
20260507114637 11 293 0.0 0.0 0.00 1.85 0.13 95 1002.8
20260507114128 11 293 0.0 0.0 0.00 1.85 0.13 95 1002.6
20260507113617 11 270 0.0 0.0 0.03 1.85 0.13 95 1002.5
20260507113108 11 248 0.0 0.0 0.03 1.85 0.13 95 1002.9
20260507112557 11 0 0.0 0.0 0.03 1.85 0.13 95 1002.8
20260507112048 11 225 0.0 0.0 0.03 1.85 0.13 95 1003.1
20260507111540 11 113 0.0 0.0 0.03 1.85 0.13 95 1003.1
20260507111026 11 45 0.0 0.0 0.03 1.85 0.13 95 1003.3
20260507110007 11 203 0.0 0.0 0.03 1.85 0.13 95 1003.5
20260507105456 11 225 0.0 0.0 0.03 1.85 0.13 95 1003.4
20260507104945 11 225 0.0 0.0 0.03 1.85 0.13 95 1003.3
20260507104439 12 248 0.0 0.0 0.03 1.85 0.13 95 1003.4
20260507103926 12 180 0.0 0.0 0.03 1.85 0.13 95 1003.2
20260507103417 11 315 0.0 0.0 0.00 1.83 0.10 95 1003.3
20260507102908 11 225 0.0 0.0 0.00 1.83 0.10 95 1003.5
20260507101335 11 0 0.0 0.0 0.00 1.83 0.10 95 1003.6
20260507100827 11 90 0.0 0.0 0.00 1.83 0.10 95 1003.5
20260507100314 11 0 0.0 0.0 0.00 1.83 0.10 95 1003.6
20260507095805 11 23 0.0 0.0 0.00 1.83 0.10 95 1003.7
20260507095254 11 23 0.0 0.0 0.00 1.83 0.10 95 1003.6
20260507094744 11 45 0.0 0.0 0.00 1.83 0.10 95 1003.6
20260507093724 12 225 0.0 0.0 0.00 1.83 0.10 95 1004.1
20260507093213 12 338 0.0 0.0 0.00 1.83 0.10 95 1003.7
20260507092707 12 293 0.0 0.0 0.00 1.83 0.10 95 1003.6
20260507092155 12 315 0.0 0.0 0.00 1.83 0.10 95 1003.6
20260507091643 12 158 0.0 0.0 0.00 1.83 0.10 95 1003.5
20260507091133 12 45 0.0 0.0 0.00 1.83 0.10 95 1003.4
20260507090623 12 0 0.0 0.0 0.00 1.83 0.10 95 1003.2
20260507090113 12 293 0.0 0.0 0.00 1.83 0.10 95 1003.1
20260507085605 12 23 0.0 0.0 0.00 1.83 0.10 95 1003.2
20260507085053 12 45 0.0 0.0 0.00 1.83 0.10 95 1003.2
20260507084543 12 0 0.0 0.0 0.00 1.83 0.10 95 1003.5
20260507084033 12 45 0.0 0.0 0.00 1.83 0.10 95 1003.2
20260507083526 12 68 0.0 0.0 0.00 1.83 0.10 95 1003.0
20260507083012 12 23 0.0 0.0 0.00 1.83 0.10 95 1002.9
20260507082503 12 23 0.0 0.0 0.00 1.83 0.10 95 1002.9
20260507081954 12 45 0.0 0.0 0.00 1.83 0.10 95 1003.1
20260507081441 12 68 0.0 0.0 0.00 1.83 0.10 95 1003.3
20260507080932 12 68 0.0 0.0 0.00 1.83 0.10 95 1003.4
20260507080423 12 45 0.0 0.0 0.00 1.83 0.10 95 1003.4
20260507075911 12 45 0.0 0.0 0.00 1.83 0.10 95 1003.8
20260507074341 12 23 0.0 0.0 0.00 1.83 0.10 95 1003.3
20260507073832 12 338 0.0 0.0 0.00 1.83 0.10 95 1003.5
20260507073321 12 338 0.0 0.0 0.00 1.83 0.10 95 1003.4
20260507072812 12 338 0.0 0.0 0.00 1.83 0.10 95 1003.5
20260507072301 12 45 0.0 0.0 0.00 1.83 0.10 95 1003.7
20260507071750 12 0 0.0 0.0 0.00 1.83 0.10 95 1003.8
20260507071241 12 0 0.0 0.0 0.00 1.83 0.10 95 1003.9
20260507070221 12 68 0.0 0.0 0.00 1.83 0.10 95 1003.8
20260507065200 12 270 0.0 0.0 0.00 1.83 0.10 95 1003.5
20260507064141 11 338 0.0 0.0 0.00 1.83 0.10 95 1003.3
20260507063630 11 68 0.0 0.0 0.00 1.83 0.10 95 1003.2
20260507063119 11 293 0.0 0.0 0.00 1.83 0.10 95 1003.1
20260507062609 11 270 0.0 0.0 0.00 1.83 0.10 95 1003.0
20260507061550 12 315 0.0 0.0 0.03 1.83 0.10 95 1003.4
20260507061039 12 315 0.0 0.0 0.05 1.83 0.10 95 1003.8
20260507060529 12 293 0.0 0.0 0.05 1.83 0.10 95 1004.0
20260507060019 12 315 0.0 0.0 0.05 1.83 0.10 95 1004.2
20260507055508 12 270 0.0 0.0 0.05 1.83 0.10 95 1004.6
20260507054958 12 293 0.0 0.0 0.05 1.83 0.10 95 1004.3
20260507054448 12 270 0.0 0.0 0.05 1.83 0.10 95 1004.6
20260507053939 12 338 0.0 0.0 0.05 1.83 0.10 95 1004.8
20260507053429 12 0 0.0 0.0 0.05 1.83 0.10 95 1004.8
20260507052918 12 23 0.0 0.0 0.05 1.83 0.10 95 1004.9
20260507052410 12 23 0.0 0.0 0.05 1.83 0.10 95 1005.0
20260507051858 12 23 0.0 0.0 0.03 1.80 0.05 95 1005.3
20260507051348 12 23 0.0 0.0 0.05 1.80 0.05 95 1004.8
20260507050838 12 270 0.0 0.0 0.03 1.78 0.03 95 1005.5
20260507050328 12 225 0.0 0.0 0.03 1.78 0.03 95 1005.3
20260507045819 12 68 0.0 0.0 0.03 1.78 0.03 95 1005.3
20260507045308 12 45 0.0 0.0 0.03 1.78 0.03 95 1005.0
20260507044759 12 23 0.0 0.0 0.03 1.78 0.03 95 1005.0
20260507044248 11 68 0.0 0.0 0.03 1.78 0.03 95 1004.8
20260507043737 11 248 0.0 0.0 0.03 1.78 0.03 95 1004.5
20260507043227 12 203 0.0 0.0 0.03 1.78 0.03 95 1004.0
20260507042737 12 315 0.0 0.0 0.03 1.78 0.03 95 1004.6
20260507041147 12 225 0.0 0.0 0.00 1.75 0.00 95 1005.6
20260507040638 12 270 0.0 0.0 0.00 1.75 0.00 95 1005.5
20260507040127 12 270 0.0 0.0 0.00 1.75 0.00 94 1005.2
20260507035619 12 293 0.0 0.0 0.00 1.75 0.00 94 1005.0
20260507035111 12 315 0.0 0.0 0.00 1.75 0.00 95 1005.5
20260507034046 11 293 0.0 0.0 0.00 1.75 0.00 94 1005.7
20260507033536 11 315 0.0 0.0 0.00 1.75 0.00 95 1005.9
20260507033025 12 315 0.0 0.0 0.00 1.75 0.00 95 1005.6
20260507032516 11 293 0.0 0.0 0.00 1.75 0.00 94 1005.7
20260507032005 11 293 0.0 0.0 0.00 1.75 0.00 95 1005.7
20260507031459 11 0 0.0 0.0 0.00 1.75 0.00 94 1005.5
20260507030947 11 225 0.0 0.0 0.00 1.75 0.00 95 1005.7
20260507030437 12 270 0.0 0.0 0.00 1.75 0.00 95 1005.7
20260507025926 12 203 0.0 0.0 0.00 1.75 1.85 94 1005.6
20260507025417 12 45 0.0 0.0 0.00 1.75 1.85 94 1005.4
20260507024905 12 293 0.0 0.0 0.00 1.75 1.85 95 1004.8
20260507024354 12 270 0.0 0.0 0.00 1.75 1.85 94 1005.0
20260507023845 11 68 0.0 0.0 0.00 1.75 1.85 94 1005.5
20260507022831 11 45 0.0 0.0 0.00 1.75 1.85 94 1005.3